Regional Weather Roundup
Issued by NWS

Home | Current Version | Previous Version | Text Only | Print | Product List | Glossary On
Versions: 1 2 3 4 5 6 7 8 9 10 11 12 13 14 15 16 17 18 19 20 21 22 23 24 25 26 27 28 29 30 31 32 33 34 35 36 37 38 39 40 41 42 43 44 45 46 47 48 49 50
960
ASUS43 KDTX 181210
RWRMI
MICHIGAN HOURLY REGIONAL WEATHER ROUNDUP
NATIONAL WEATHER SERVICE DETROIT/PONTIAC MI
700 AM EST WED JAN 18 2017

NOTE: "FAIR" INDICATES FEW OR NO CLOUDS BELOW 12,000 FEET WITH NO
SIGNIFICANT WEATHER AND/OR OBSTRUCTION TO VISIBILITY.

MIZ047>049-052>055-059>063-066>070-074>076-081>083-181300-
SOUTHEAST LOWER MICHIGAN

CITY           SKY/WX    TMP DP  RH WIND       PRES   REMARKS
ADRIAN         CLOUDY    34  34 100 W7        30.04R WCI  28
6HR MIN TEMP:  34; 6HR MAX TEMP:  37; 6HR PCP:  0.01;

ALMA           CLOUDY    35  35  99 SW6       29.99S FOG     WCI  30
ANN ARBOR      CLOUDY    35  35 100 SW9       30.01R WCI  28
BAD AXE        CLOUDY    33  33 100 W3        29.97R FOG
6HR MIN TEMP:  33; 6HR MAX TEMP:  33;

CARO           CLOUDY    35  34  97 W5        29.97R FOG     WCI  31
DETROIT CITY   CLOUDY    37  36  93 W6        30.00R WCI  33
DETROIT        CLOUDY    37  35  92 SW9       30.02R WCI  30
6HR MIN TEMP:  37; 6HR MAX TEMP:  39; 6HR PCP: TRACE;

FLINT          CLOUDY    35  34  96 W8        29.99R FOG     WCI  29
6HR MIN TEMP:  35; 6HR MAX TEMP:  36;

GROSSE ILE     CLOUDY    36  34  94 W9        30.01R WCI  29
6HR MIN TEMP:  36; 6HR MAX TEMP:  39;

HILLSDALE      CLOUDY    32  32 100 W9        30.02R FOG     WCI  24
HOWELL         CLOUDY    35  34  96 W8        30.00R FOG     WCI  28

CITY           SKY/WX    TMP DP  RH WIND       PRES   REMARKS
JACKSON        CLOUDY    35  34  96 W8        30.02R FOG     WCI  29
6HR MIN TEMP:  35; 6HR MAX TEMP:  36; 6HR PCP: TRACE;

LAMBERTVILLE   CLOUDY    37  34  92 W7        30.04S FOG     WCI  31
6HR MIN TEMP:  37; 6HR MAX TEMP:  40;

LANSING        CLOUDY    36  33  89 W12       30.01R FOG     WCI  28
6HR MIN TEMP:  35; 6HR MAX TEMP:  37;

LAPEER         CLOUDY    35  35 100 W5        29.98R FOG     WCI  31
6HR MIN TEMP:  35; 6HR MAX TEMP:  36;

MASON          CLOUDY    35  35 100 W7        30.01R FOG     WCI  29
MONROE         CLOUDY    36  35  99 W9        30.03R FOG     WCI  29
6HR MIN TEMP:  36; 6HR MAX TEMP:  38;

MT. CLEMENS    CLOUDY    37  37  99 W6        29.97S WCI  32
6HR MIN TEMP:  37; 6HR MAX TEMP:  38; 6HR PCP: TRACE;

PONTIAC        DRIZZLE   35  33  92 W10       29.97R FOG     WCI  27
6HR MIN TEMP:  35; 6HR MAX TEMP:  36; 6HR PCP: TRACE;

PORT HOPE        N/A     34  34 100 W6        29.95R WCI  29
6HR MIN TEMP:  34; 6HR MAX TEMP:  35;

PORT HURON     CLOUDY    36  36 100 CALM      29.98S FOG
TRI CITIES     CLOUDY    35  35 100 W7        29.98S FOG     WCI  29
6HR MIN TEMP:  35; 6HR MAX TEMP:  35;

MIDLAND        CLOUDY    36  34  94 W3        29.97R
6HR MIN TEMP:  35; 6HR MAX TEMP:  36;

TROY           CLOUDY    37  34  90 W5        30.01R WCI  33
SAGINAW HB     CLOUDY    36  32  87 SW6       29.98R FOG     WCI  31
$$
MIZ043>046-050>051-056>058-064>065-071>073-077>080-181300-
SOUTHWEST LOWER MICHIGAN

CITY           SKY/WX    TMP DP  RH WIND       PRES   REMARKS
BATTLE CREEK   CLOUDY    36  35  96 W9        30.03R FOG     WCI  29
6HR MIN TEMP:  35; 6HR MAX TEMP:  36; 6HR PCP: TRACE;

BENTON HARBOR  CLOUDY    36  34  92 W12       30.08R FOG     WCI  28
6HR MIN TEMP:  36; 6HR MAX TEMP:  37;

BIG RAPIDS     CLOUDY    34  33  96 W6        29.98R FOG     WCI  29
6HR MIN TEMP:  34; 6HR MAX TEMP:  34;

COLDWATER      CLOUDY    35  35 100 W8        30.04R FOG     WCI  28
6HR MIN TEMP:  35; 6HR MAX TEMP:  35;

FREMONT        FOG       34  34 100 W5        30.02R VSB 3/4 WCI  30
HOLLAND        CLOUDY    36  34  92 W8        30.05R WCI  30
6HR MIN TEMP:  36; 6HR MAX TEMP:  37;

GRAND RAPIDS   CLOUDY    35  34  96 W9        30.03R FOG     WCI  28
6HR MIN TEMP:  35; 6HR MAX TEMP:  36;

IONIA          CLOUDY    35  34  99 W9        30.00R FOG     WCI  27
6HR MIN TEMP:  35; 6HR MAX TEMP:  35;

KALAMAZOO      CLOUDY    36  33  89 W7        30.05R FOG     WCI  30
6HR MIN TEMP:  36; 6HR MAX TEMP:  36; 6HR PCP: TRACE;

LUDINGTON      CLOUDY    35  34  97 CALM      30.01R
6HR MIN TEMP:  35; 6HR MAX TEMP:  36;

MARSHALL       CLOUDY    35  34  98 W8        30.03R FOG     WCI  28
6HR MIN TEMP:  35; 6HR MAX TEMP:  36;

MOUNT PLEASANT CLOUDY    35  34  99 W5        29.98R WCI  31
6HR MIN TEMP:  34; 6HR MAX TEMP:  35;

MUSKEGON       CLOUDY    37  34  89 W6        30.04R WCI  32
6HR MIN TEMP:  36; 6HR MAX TEMP:  37;

SOUTH HAVEN    CLOUDY    36  35  96 W6        30.06R WCI  31
$$
MIZ016>042-181300-
NORTHERN LOWER MICHIGAN

CITY           SKY/WX    TMP DP  RH WIND       PRES   REMARKS
ALPENA         FOG       33  32  96 CALM      29.95R VSB 1/2
6HR MIN TEMP:  33; 6HR MAX TEMP:  33;

BEAVER ISLAND  CLOUDY    32  32 100 W8        29.94R FOG     WCI  25
BELLAIRE       CLOUDY    33  33  99 CALM      29.97S FOG
6HR MIN TEMP:  32; 6HR MAX TEMP:  33;

CADILLAC       FOG       33  32  97 CALM      29.95R VSB 1/2
CHARLEVOIX     CLOUDY    34  34 100 SW7       29.98R WCI  28
6HR MIN TEMP:  32; 6HR MAX TEMP:  34;

FRANKFORT      CLOUDY    34  34 100 SW3       29.98R
GAYLORD        FOG       32  29  88 W8        29.92R VSB 1/2 WCI  25
6HR MIN TEMP:  32; 6HR MAX TEMP:  33; 6HR PCP: TRACE;

GRAYLING       CLOUDY    33  32  96 W8        29.95R FOG     WCI  26
HARBOR SPRINGS CLOUDY    32  32  99 SW8       29.95R WCI  25
HOUGHTON LAKE  CLOUDY    32  31  96 W6        29.96R WCI  26
6HR MIN TEMP:  32; 6HR MAX TEMP:  33;

MANISTEE       CLOUDY    35  33  92 SW5       30.00R WCI  31
OSCODA         CLOUDY    34  33  96 SW3       29.95R FOG
6HR MIN TEMP:  34; 6HR MAX TEMP:  35;

PELLSTON       CLOUDY    32  30  92 SW6       29.94S WCI  26
6HR MIN TEMP:  32; 6HR MAX TEMP:  32;

ROGERS CITY    CLOUDY    33  32  96 W6        29.95R WCI  27
TRAVERSE CITY  CLOUDY    35  33  92 SW3       29.97R
6HR MIN TEMP:  33; 6HR MAX TEMP:  35;

$$
MIZ007>008-015-181300-
EASTERN UPPER MICHIGAN

CITY           SKY/WX    TMP DP  RH WIND       PRES   REMARKS
KINROSS        CLOUDY    29  29 100 SW7       29.91S FOG     WCI  22
6HR MIN TEMP:  29; 6HR MAX TEMP:  31;

MACKINAC ISLAN CLOUDY    31  31 100 W9        29.93R WCI  23
6HR MIN TEMP:  31; 6HR MAX TEMP:  32;

NEWBERRY       CLOUDY    30  29  97 S12       29.89S FOG     WCI  20
6HR MIN TEMP:  21; 6HR MAX TEMP:  30;

S. S. MARIE    FOG       29  28  96 CALM      29.91R VSB 1/4
6HR MIN TEMP:  27; 6HR MAX TEMP:  32;

MUNISING         N/A     29  27  92 S8        29.88S WCI  21
6HR MIN TEMP:  26; 6HR MAX TEMP:  30;

$$
MIZ004>006-011>014-085-181300-
CENTRAL UPPER MICHIGAN

CITY           SKY/WX    TMP DP  RH WIND       PRES   REMARKS
MANISTIQUE     CLOUDY    31  30  97 SW5       29.91F FOG     WCI  26
6HR MIN TEMP:  31; 6HR MAX TEMP:  32;

ESCANABA       CLOUDY    32  31  96 S7        29.92F FOG     WCI  26
6HR MIN TEMP:  32; 6HR MAX TEMP:  34;

SAWYER-GWINN   CLEAR     21  21 100 S7        29.86S WCI  13
$$
MIZ001>003-009>011-084-181300-
WESTERN UPPER MICHIGAN

CITY           SKY/WX    TMP DP  RH WIND       PRES   REMARKS
IRON MOUNTAIN  CLOUDY    14  10  84 CALM      29.88S FOG
6HR MIN TEMP:  12; 6HR MAX TEMP:  22;

HOUGHTON       CLOUDY    32  22  66 W10       29.79R WCI  24
6HR MIN TEMP:  21; 6HR MAX TEMP:  33;

COPPER HARBOR    N/A     28  24  85 CALM      29.79R
6HR MIN TEMP:  19; 6HR MAX TEMP:  29;

IRONWOOD       CLOUDY    30  24  78 SW14G23   29.83S WCI  19
6HR MIN TEMP:  28; 6HR MAX TEMP:  32;

$$

ABBREVIATIONS USED IN REMARKS
   TC - TEMPERATURE IN CELSIUS
  WCI - WIND CHILL INDEX
   HX - HEAT INDEX
  VSB - VISIBILITY





USA.gov is the U.S. government's official web portal to all federal, state and local government web resources and services.